Regional Weather Roundup
Issued by NWS

Home | Current Version | Previous Version | Text Only | Print | Product List | Glossary On
Versions: 1 2 3 4 5 6 7 8 9 10 11 12 13 14 15 16 17 18 19 20 21 22 23 24 25 26 27 28 29 30 31 32 33 34 35 36 37 38 39 40 41 42 43 44 45 46 47 48 49 50
000
ASUS43 KTOP 051808
RWRKS

WEATHER ROUNDUP FOR KANSAS
NATIONAL WEATHER SERVICE GOODLAND KS
100 PM CDT TUE MAY 05 2015

NOTE:  "FAIR" INDICATES FEW OR NO CLOUDS BELOW 12,000 FEET WITH NO
SIGNIFICANT WEATHER AND/OR OBSTRUCTIONS TO VISIBILITY.

KSZ001>006-013>018-027>032-041>047-051900-
NORTHWEST KANSAS

CITY           SKY/WX    TMP DP  RH WIND       PRES   REMARKS
GOODLAND       RAIN      58  56  93 SE15      29.94F FOG
6HR MIN TEMP:  52; 6HR MAX TEMP:  58; 6HR PCP:  0.25;

HAYS           CLOUDY    66  54  63 S20G25    29.98F
HILL CITY      CLOUDY    65  57  75 S10       29.98F
6HR MIN TEMP:  59; 6HR MAX TEMP:  68;

RUSSELL        PTSUNNY   71  56  58 SE26G32   29.98F
6HR MIN TEMP:  59; 6HR MAX TEMP:  72;

$$

KSZ061>065-074>080-084>089-051900-
SOUTHWEST KANSAS

CITY           SKY/WX    TMP DP  RH WIND       PRES   REMARKS
DODGE CITY     CLOUDY    62  56  80 SE18      29.94F
6HR MIN TEMP:  58; 6HR MAX TEMP:  62; 6HR PCP:  0.07;

ELKHART          N/A     61  55  81 S9          N/A
GARDEN CITY    CLOUDY    59  57  93 SE24G33   29.90F
6HR MIN TEMP:  56; 6HR MAX TEMP:  59; 6HR PCP:  0.25;

GREAT BEND     CLOUDY    66  55  68 S16       29.98F
LIBERAL        CLOUDY    59  55  88 SE22      29.89F
PRATT          CLOUDY    68  52  56 S20G31    29.99F
$$

KSZ066>073-081>083-090>101-051900-
SOUTHEAST KANSAS

CITY           SKY/WX    TMP DP  RH WIND       PRES   REMARKS
CHANUTE        PTSUNNY   77  60  55 SE15      30.07F
6HR MIN TEMP:  60; 6HR MAX TEMP:  78;

COFFEYVILLE    CLOUDY    78  62  57 S14G24    30.07F
6HR MIN TEMP:  61; 6HR MAX TEMP:  78;

HUTCHINSON     PTSUNNY   74  53  48 SE14G23   30.00F
6HR MIN TEMP:  61; 6HR MAX TEMP:  75;

MEDICINE LODGE   N/A     72  54  53 S16G30    29.97F
NEWTON         PTSUNNY   72  52  49 SE21G26   30.05F
PARSONS        PTSUNNY   79  62  56 VRB7      30.08F
6HR MIN TEMP:  62; 6HR MAX TEMP:  79;

WICHITA INTL   PTSUNNY   77  54  44 S22G30    30.01F
6HR MIN TEMP:  62; 6HR MAX TEMP:  78;

WICHITA JABRA  PTSUNNY   76  53  44 S23G32    30.01F
6HR MIN TEMP:  61; 6HR MAX TEMP:  77;

WICHITA MCCONL PTSUNNY   77  54  45 SE23G37   30.02F
WINFIELD       PTSUNNY   77  55  46 S25G33    30.03F
6HR MIN TEMP:  62; 6HR MAX TEMP:  77;

$$

KSZ007>012-019>026-033>040-048>060-102>105-051900-
NORTHEAST KANSAS

CITY           SKY/WX    TMP DP  RH WIND       PRES   REMARKS
CONCORDIA      CLOUDY    73  57  57 SE22G29   30.03F
6HR MIN TEMP:  59; 6HR MAX TEMP:  74;

EMPORIA        CLOUDY    76  53  44 S20G29    30.05F
6HR MIN TEMP:  59; 6HR MAX TEMP:  76;

LAWRENCE       PTSUNNY   77  58  51 S16       30.08F
6HR MIN TEMP:  61; 6HR MAX TEMP:  78;

MANHATTAN      CLOUDY    75  59  57 S15       30.04F
6HR MIN TEMP:  60; 6HR MAX TEMP:  75;

MARYSVILLE     PTSUNNY   73  61  64 S15       30.06S
OLATHE IND     PTSUNNY   78  52  40 S16       30.10F
6HR MIN TEMP:  61; 6HR MAX TEMP:  79;

OLATHE EXE     PTSUNNY   77  56  48 S14G22    30.10F
6HR MIN TEMP:  60; 6HR MAX TEMP:  77;

SALINA         PTSUNNY   76  57  51 S18G25    30.02F
6HR MIN TEMP:  59; 6HR MAX TEMP:  76;

TOPEKA BILLARD PTSUNNY   77  58  51 S14G21    30.08F
6HR MIN TEMP:  60; 6HR MAX TEMP:  77;

TOPEKA FORBES  CLOUDY    77  56  48 S15       30.07F
6HR MIN TEMP:  63; 6HR MAX TEMP:  78;

$$


USA.gov is the U.S. government's official web portal to all federal, state and local government web resources and services.